Carlisle Airport, United Kingdom

5:24 PM BST on May 22, 2017 (GMT +0100)
Carlisle

Weather History for EGNC - December, 2013

Change the Weather History Date:

Monday, December 9, 2013

  Actual Average Record
Temperature  
Mean Temperature 48 °F -  
Max Temperature 51 °F 42 °F 55 °F (2016)
Min Temperature 46 °F 36 °F 17 °F (2010)
Degree Days  
Heating Degree Days 16    
Moisture  
Dew Point 46 °F    
Average Humidity 86    
Maximum Humidity 94    
Minimum Humidity 82    
Precipitation  
Precipitation 0.00 in - - ()
Sea Level Pressure  
Sea Level Pressure 30.19 in    
Wind  
Wind Speed 12 mph ()    
Max Wind Speed 20 mph    
Max Gust Speed -    
Visibility 6.2 miles    
Events      
Averages and records for this station are not official NWS values.
T = Trace of Precipitation, MM = Missing Value Source: Averaged Metar Reports

Daily Weather History Graph

Daily Weather History Graph

Search for Another Location

Airport or City:

Trip Planner

Search our weather history database for the weather conditions in past years. The results will help you decide how hot, cold, wet, or windy it might be!

Date:

Astronomy

Dec. 09, 2013 Rise Set
Actual Time 8:23 AM GMT 3:44 PM GMT
Civil Twilight 7:39 AM GMT 4:29 PM GMT
Nautical Twilight 6:51 AM GMT 5:16 PM GMT
Astronomical Twilight 6:07 AM GMT 6:00 PM GMT
Moon 12:12 PM GMT (12/9) No Moon Set
Length of Visible Light 8h 50m
Length of Day
7h 20m
Waxing Crescent, 48% of the Moon is Illuminated
Dec 9
Waxing Crescent
Dec 9
First Quarter
Dec 17
Full
Dec 25
Last Quarter
Jan 1
New

Hourly Weather History & Observations

Time (GMT) Temp. Windchill Dew Point Humidity Pressure Visibility Wind Dir Wind Speed Gust Speed Precip Events Conditions
8:50 AM 50.0 °F - 46.4 °F 87% 30.15 in 6.2 mi WSW 15.0 mph - N/A   Mostly Cloudy
9:20 AM 50.0 °F - 48.2 °F 94% 30.15 in 5.6 mi WSW 13.8 mph - N/A   Mostly Cloudy
9:50 AM 50.0 °F - 48.2 °F 94% 30.15 in 6.2 mi WSW 13.8 mph - N/A   Mostly Cloudy
10:20 AM 50.0 °F - 46.4 °F 87% 30.18 in 6.2 mi SW 11.5 mph - N/A   Mostly Cloudy
10:50 AM 50.0 °F - 46.4 °F 87% 30.18 in 6.2 mi SW 12.7 mph - N/A   Mostly Cloudy
11:20 AM 51.8 °F - 46.4 °F 82% 30.21 in 6.2 mi SW 15.0 mph - N/A   Mostly Cloudy
11:50 AM 51.8 °F - 46.4 °F 82% 30.21 in 6.2 mi WSW 15.0 mph - N/A   Mostly Cloudy
12:20 PM 51.8 °F - 46.4 °F 82% 30.21 in 6.2 mi WSW 12.7 mph - N/A   Mostly Cloudy
12:50 PM 51.8 °F - 46.4 °F 82% 30.18 in 6.2 mi WSW 19.6 mph - N/A   Mostly Cloudy
1:20 PM 51.8 °F - 46.4 °F 82% 30.18 in 6.2 mi WSW 19.6 mph - N/A   Scattered Clouds
1:50 PM 51.8 °F - 46.4 °F 82% 30.18 in 6.2 mi WSW 15.0 mph - N/A   Scattered Clouds
2:20 PM 50.0 °F - 46.4 °F 87% 30.21 in 6.2 mi SW 12.7 mph - N/A   Mostly Cloudy
2:50 PM 50.0 °F - 44.6 °F 82% 30.21 in 6.2 mi WSW 12.7 mph - N/A   Mostly Cloudy
3:20 PM 50.0 °F - 44.6 °F 82% 30.21 in 6.2 mi WSW 12.7 mph - N/A   Mostly Cloudy
3:50 PM 50.0 °F - 46.4 °F 87% 30.21 in 6.2 mi WSW 12.7 mph - N/A   Mostly Cloudy
4:20 PM 50.0 °F - 46.4 °F 87% 30.21 in 6.2 mi WSW 10.4 mph - N/A   Scattered Clouds
4:50 PM 46.4 °F 42.4 °F 42.8 °F 87% 30.21 in 6.2 mi WSW 8.1 mph - N/A   Scattered Clouds
5:20 PM 48.2 °F - 44.6 °F 87% 30.21 in 6.2 mi SW 3.5 mph - N/A   Scattered Clouds
5:50 PM 48.2 °F - 44.6 °F 87% 30.21 in 6.2 mi SW 1.2 mph - N/A   Scattered Clouds